| time (UTC) | temp C | wind direction | speed KPH | gust KPH | rain 1hr cm | rain 24hr cm | rain mn cm | humidity % | barometer mb |
| 20260902014516 | 16 | 0.0 | 3.2 | 0.00 | 0.28 | 0.00 | 47 | 1027.7 | |
| 20260902013516 | 16 | 0.0 | 3.2 | 0.00 | 0.28 | 0.00 | 47 | 1027.8 | |
| 20260902012516 | 17 | 0.0 | 4.8 | 0.00 | 0.28 | 0.00 | 45 | 1027.9 | |
| 20260902011516 | 18 | 113 | 1.6 | 4.8 | 0.00 | 0.28 | 0.00 | 44 | 1028.7 |
| 20260902010536 | 18 | 113 | 1.6 | 4.8 | 0.00 | 0.28 | 0.00 | 42 | 1029.5 |
| 20260902005536 | 18 | 90 | 3.2 | 11.3 | 0.00 | 0.28 | 0.00 | 42 | 1029.5 |
| 20260902004516 | 18 | 0.0 | 4.8 | 0.00 | 0.28 | 0.00 | 44 | 1029.4 | |
| 20260902003516 | 17 | 113 | 1.6 | 6.4 | 0.00 | 0.28 | 0.00 | 46 | 1029.5 |
| 20260902002516 | 17 | 0.0 | 4.8 | 0.00 | 0.28 | 0.00 | 45 | 1029.5 | |
| 20260902001536 | 18 | 90 | 3.2 | 9.7 | 0.00 | 0.28 | 0.00 | 44 | 1029.4 |
| 20260902000555 | 18 | 0.0 | 3.2 | 0.00 | 0.28 | 0.00 | 43 | 1029.4 | |
| 20260901235516 | 18 | 90 | 1.6 | 8.0 | 0.00 | 0.36 | 0.00 | 41 | 1029.3 |
| 20260901234515 | 19 | 90 | 3.2 | 9.7 | 0.00 | 0.41 | 0.00 | 39 | 1029.7 |
| 20260901233516 | 20 | 90 | 3.2 | 9.7 | 0.00 | 0.41 | 0.00 | 36 | 1030.2 |
| 20260901232515 | 21 | 113 | 4.8 | 12.9 | 0.00 | 0.41 | 0.00 | 36 | 1030.2 |
| 20260901231536 | 20 | 180 | 3.2 | 6.4 | 0.00 | 0.41 | 0.00 | 37 | 1030.3 |
| 20260901230535 | 20 | 203 | 8.0 | 17.7 | 0.00 | 0.41 | 0.00 | 37 | 1029.6 |
| 20260901225516 | 20 | 293 | 12.9 | 22.5 | 0.00 | 0.41 | 0.00 | 34 | 1029.2 |
| 20260901224516 | 20 | 225 | 12.9 | 29.0 | 0.00 | 0.41 | 0.00 | 35 | 1029.4 |
| 20260901223515 | 20 | 270 | 8.0 | 17.7 | 0.00 | 0.41 | 0.00 | 33 | 1029.4 |
| 20260901222515 | 20 | 293 | 3.2 | 9.7 | 0.00 | 0.41 | 0.00 | 35 | 1029.5 |
| 20260901221535 | 19 | 248 | 11.3 | 24.1 | 0.00 | 0.41 | 0.00 | 34 | 1028.8 |
| 20260901220515 | 19 | 293 | 9.7 | 24.1 | 0.00 | 0.41 | 0.00 | 38 | 1029.2 |
| 20260901215515 | 19 | 248 | 9.7 | 22.5 | 0.00 | 0.41 | 0.00 | 36 | 1029.2 |
| 20260901214516 | 18 | 248 | 12.9 | 25.7 | 0.00 | 0.41 | 0.00 | 36 | 1029.2 |
| 20260901213515 | 18 | 225 | 12.9 | 22.5 | 0.00 | 0.41 | 0.00 | 37 | 1028.7 |
| 20260901212515 | 17 | 248 | 8.0 | 19.3 | 0.00 | 0.41 | 0.00 | 41 | 1028.3 |
| 20260901211517 | 17 | 225 | 11.3 | 24.1 | 0.00 | 0.41 | 0.00 | 38 | 1028.1 |
| 20260901210517 | 16 | 248 | 9.7 | 17.7 | 0.00 | 0.41 | 0.00 | 41 | 1027.0 |
| 20260901205517 | 15 | 225 | 12.9 | 33.8 | 0.00 | 0.41 | 0.00 | 43 | 1027.4 |
| 20260901204517 | 16 | 225 | 16.1 | 29.0 | 0.00 | 0.41 | 0.00 | 44 | 1027.4 |
| 20260901203517 | 17 | 203 | 8.0 | 17.7 | 0.00 | 0.41 | 0.00 | 43 | 1028.5 |
| 20260901202517 | 18 | 270 | 8.0 | 22.5 | 0.00 | 0.41 | 0.00 | 40 | 1029.1 |
| 20260901201517 | 17 | 225 | 8.0 | 17.7 | 0.00 | 0.41 | 0.00 | 44 | 1028.6 |
| 20260901200537 | 17 | 270 | 6.4 | 14.5 | 0.00 | 0.41 | 0.00 | 44 | 1029.3 |
| 20260901195517 | 17 | 270 | 6.4 | 16.1 | 0.00 | 0.41 | 0.00 | 43 | 1029.2 |
| 20260901194517 | 18 | 225 | 4.8 | 12.9 | 0.00 | 0.41 | 0.00 | 42 | 1029.1 |
| 20260901193517 | 17 | 225 | 8.0 | 17.7 | 0.00 | 0.41 | 0.00 | 43 | 1028.7 |
| 20260901192517 | 17 | 225 | 8.0 | 17.7 | 0.00 | 0.41 | 0.00 | 38 | 1028.4 |
| 20260901191517 | 17 | 203 | 4.8 | 19.3 | 0.00 | 0.41 | 0.00 | 40 | 1029.0 |
| 20260901190537 | 17 | 225 | 6.4 | 16.1 | 0.00 | 0.41 | 0.00 | 42 | 1028.5 |
| 20260901185517 | 17 | 203 | 4.8 | 14.5 | 0.00 | 0.41 | 0.00 | 45 | 1028.9 |
| 20260901184517 | 16 | 248 | 6.4 | 12.9 | 0.00 | 0.41 | 0.00 | 46 | 1028.4 |
| 20260901183517 | 16 | 248 | 4.8 | 12.9 | 0.00 | 0.41 | 0.00 | 45 | 1029.0 |
| 20260901182517 | 16 | 248 | 4.8 | 14.5 | 0.00 | 0.41 | 0.00 | 46 | 1029.2 |
| 20260901181517 | 17 | 293 | 9.7 | 19.3 | 0.00 | 0.41 | 0.00 | 41 | 1029.0 |
| 20260901180516 | 16 | 293 | 8.0 | 27.4 | 0.00 | 0.41 | 0.00 | 41 | 1029.1 |
| 20260901175516 | 17 | 225 | 12.9 | 25.7 | 0.00 | 0.41 | 0.00 | 41 | 1029.3 |
| 20260901174517 | 16 | 270 | 4.8 | 11.3 | 0.00 | 0.41 | 0.00 | 43 | 1029.3 |
| 20260901173516 | 16 | 203 | 9.7 | 24.1 | 0.00 | 0.41 | 0.00 | 42 | 1028.5 |
| 20260901172517 | 15 | 270 | 4.8 | 11.3 | 0.00 | 0.41 | 0.00 | 47 | 1028.0 |
| 20260901171517 | 16 | 225 | 9.7 | 20.9 | 0.00 | 0.41 | 0.00 | 45 | 1028.7 |
| 20260901170517 | 15 | 203 | 14.5 | 29.0 | 0.00 | 0.41 | 0.00 | 45 | 1027.8 |
| 20260901165516 | 15 | 225 | 14.5 | 24.1 | 0.00 | 0.41 | 0.00 | 45 | 1027.7 |
| 20260901164517 | 15 | 225 | 12.9 | 27.4 | 0.00 | 0.41 | 0.00 | 46 | 1027.7 |
| 20260901163517 | 15 | 225 | 11.3 | 20.9 | 0.00 | 0.41 | 0.00 | 49 | 1027.6 |
| 20260901162516 | 15 | 203 | 9.7 | 19.3 | 0.00 | 0.41 | 0.00 | 50 | 1026.7 |
| 20260901161516 | 14 | 203 | 6.4 | 12.9 | 0.00 | 0.41 | 0.00 | 56 | 1027.0 |
| 20260901160517 | 13 | 203 | 11.3 | 20.9 | 0.00 | 0.41 | 0.00 | 57 | 1026.4 |
| 20260901155516 | 13 | 203 | 14.5 | 22.5 | 0.00 | 0.41 | 0.00 | 61 | 1026.2 |
| 20260901154516 | 12 | 203 | 6.4 | 14.5 | 0.00 | 0.41 | 0.00 | 66 | 1026.4 |
| 20260901153517 | 11 | 225 | 3.2 | 8.0 | 0.00 | 0.41 | 0.00 | 72 | 1026.2 |
| 20260901152516 | 11 | 248 | 4.8 | 11.3 | 0.00 | 0.41 | 0.00 | 72 | 1025.5 |
| 20260901151516 | 11 | 225 | 6.4 | 14.5 | 0.00 | 0.41 | 0.00 | 70 | 1025.4 |
| 20260901150516 | 11 | 225 | 9.7 | 16.1 | 0.00 | 0.41 | 0.00 | 71 | 1025.2 |
| 20260901145516 | 11 | 225 | 6.4 | 17.7 | 0.00 | 0.41 | 0.00 | 73 | 1025.3 |
| 20260901144516 | 10 | 248 | 4.8 | 8.0 | 0.00 | 0.41 | 0.00 | 75 | 1025.4 |
| 20260901143516 | 10 | 225 | 4.8 | 9.7 | 0.00 | 0.41 | 0.00 | 74 | 1025.5 |
| 20260901142556 | 10 | 270 | 4.8 | 11.3 | 0.00 | 0.41 | 0.00 | 74 | 1025.4 |
| 20260901141516 | 10 | 248 | 6.4 | 14.5 | 0.00 | 0.41 | 0.00 | 74 | 1025.5 |
| 20260901140516 | 10 | 270 | 8.0 | 14.5 | 0.00 | 0.41 | 0.00 | 74 | 1026.1 |
| 20260901135516 | 10 | 248 | 6.4 | 14.5 | 0.00 | 0.41 | 0.00 | 74 | 1026.0 |
| 20260901134516 | 11 | 248 | 8.0 | 16.1 | 0.00 | 0.41 | 0.00 | 73 | 1026.4 |
| 20260901133516 | 10 | 248 | 6.4 | 17.7 | 0.00 | 0.41 | 0.00 | 73 | 1025.6 |
| 20260901132516 | 10 | 225 | 6.4 | 12.9 | 0.00 | 0.41 | 0.00 | 74 | 1025.3 |
| 20260901131516 | 10 | 248 | 6.4 | 14.5 | 0.00 | 0.41 | 0.00 | 75 | 1025.2 |
| 20260901130516 | 10 | 248 | 4.8 | 12.9 | 0.00 | 0.41 | 0.00 | 75 | 1025.0 |
| 20260901125516 | 10 | 248 | 4.8 | 12.9 | 0.00 | 0.41 | 0.00 | 75 | 1024.8 |
| 20260901124516 | 10 | 248 | 4.8 | 6.4 | 0.00 | 0.41 | 0.00 | 74 | 1024.7 |
| 20260901123516 | 10 | 203 | 8.0 | 11.3 | 0.00 | 0.41 | 0.00 | 72 | 1024.3 |
| 20260901122536 | 11 | 225 | 4.8 | 8.0 | 0.00 | 0.41 | 0.00 | 73 | 1024.9 |
| 20260901121536 | 11 | 248 | 3.2 | 8.0 | 0.00 | 0.41 | 0.00 | 70 | 1024.7 |
| 20260901120515 | 10 | 158 | 1.6 | 4.8 | 0.00 | 0.41 | 0.00 | 75 | 1026.0 |
| 20260901115515 | 10 | 203 | 1.6 | 3.2 | 0.00 | 0.41 | 0.00 | 76 | 1025.8 |
| 20260901114515 | 10 | 180 | 3.2 | 4.8 | 0.00 | 0.41 | 0.00 | 76 | 1025.8 |
| 20260901113515 | 10 | 203 | 1.6 | 4.8 | 0.00 | 0.41 | 0.00 | 76 | 1027.7 |
| 20260901112516 | 10 | 180 | 1.6 | 4.8 | 0.00 | 0.41 | 0.00 | 76 | 1027.7 |
| 20260901111516 | 10 | 0.0 | 3.2 | 0.00 | 0.41 | 0.00 | 77 | 1027.7 | |
| 20260901110535 | 10 | 0.0 | 1.6 | 0.00 | 0.41 | 0.00 | 78 | 1027.1 | |
| 20260901105516 | 10 | 225 | 1.6 | 3.2 | 0.00 | 0.41 | 0.00 | 79 | 1027.1 |
| 20260901104516 | 10 | 0.0 | 3.2 | 0.00 | 0.41 | 0.00 | 81 | 1027.0 | |
| 20260901103516 | 10 | 0.0 | 1.6 | 0.00 | 0.41 | 0.00 | 81 | 1027.6 | |
| 20260901102515 | 10 | 0.0 | 3.2 | 0.00 | 0.41 | 0.00 | 82 | 1027.7 | |
| 20260901101516 | 10 | 0.0 | 0.0 | 0.00 | 0.41 | 0.00 | 84 | 1027.8 | |
| 20260901100516 | 10 | 180 | 3.2 | 4.8 | 0.00 | 0.41 | 0.00 | 81 | 1027.9 |
| 20260901095515 | 10 | 180 | 1.6 | 4.8 | 0.00 | 0.41 | 0.00 | 81 | 1028.1 |
| 20260901094515 | 10 | 158 | 3.2 | 4.8 | 0.00 | 0.41 | 0.00 | 81 | 1028.2 |
| 20260901093515 | 9 | 135 | 1.6 | 3.2 | 0.00 | 0.41 | 0.00 | 82 | 1028.0 |
| 20260901092515 | 9 | 45 | 1.6 | 1.6 | 0.00 | 0.41 | 0.00 | 85 | 1028.1 |
| 20260901091515 | 9 | 0.0 | 0.0 | 0.00 | 0.41 | 0.00 | 85 | 1028.2 | |
| 20260901090517 | 9 | 23 | 1.6 | 3.2 | 0.00 | 0.41 | 0.00 | 87 | 1028.1 |
| 20260901085537 | 9 | 23 | 1.6 | 1.6 | 0.00 | 0.41 | 0.00 | 89 | 1028.3 |
| 20260901084517 | 9 | 0.0 | 1.6 | 0.00 | 0.41 | 0.00 | 89 | 1027.7 | |
| 20260901083517 | 9 | 0.0 | 1.6 | 0.00 | 0.41 | 0.00 | 89 | 1027.7 | |
| 20260901082517 | 9 | 0.0 | 3.2 | 0.00 | 0.41 | 0.00 | 89 | 1028.3 | |
| 20260901081517 | 9 | 23 | 1.6 | 3.2 | 0.00 | 0.41 | 0.00 | 88 | 1028.4 |
| 20260901080517 | 9 | 0.0 | 0.0 | 0.00 | 0.41 | 0.00 | 87 | 1028.4 | |
| 20260901075537 | 10 | 0.0 | 3.2 | 0.00 | 0.41 | 0.00 | 87 | 1028.4 | |
| 20260901074517 | 10 | 158 | 3.2 | 4.8 | 0.00 | 0.41 | 0.00 | 86 | 1029.2 |
| 20260901073517 | 10 | 135 | 1.6 | 3.2 | 0.00 | 0.41 | 0.00 | 86 | 1028.8 |
| 20260901072517 | 10 | 135 | 1.6 | 3.2 | 0.00 | 0.41 | 0.00 | 86 | 1028.7 |
| 20260901071517 | 10 | 0.0 | 1.6 | 0.00 | 0.41 | 0.00 | 85 | 1028.9 | |
| 20260901070517 | 10 | 113 | 1.6 | 3.2 | 0.00 | 0.41 | 0.00 | 85 | 1028.8 |
| 20260901065517 | 10 | 0.0 | 3.2 | 0.00 | 0.41 | 0.00 | 86 | 1028.8 | |
| 20260901064537 | 10 | 113 | 1.6 | 4.8 | 0.00 | 0.41 | 0.00 | 85 | 1028.9 |
| 20260901063517 | 10 | 0.0 | 3.2 | 0.00 | 0.41 | 0.00 | 83 | 1028.2 | |
| 20260901062517 | 10 | 135 | 1.6 | 3.2 | 0.00 | 0.41 | 0.00 | 84 | 1028.1 |
| 20260901061516 | 10 | 0.0 | 3.2 | 0.00 | 0.41 | 0.00 | 83 | 1028.2 | |
| 20260901060516 | 10 | 0.0 | 3.2 | 0.00 | 0.41 | 0.00 | 85 | 1028.2 | |
| 20260901055515 | 10 | 135 | 1.6 | 6.4 | 0.00 | 0.41 | 0.41 | 85 | 1028.4 |
| 20260901054516 | 10 | 158 | 1.6 | 3.2 | 0.00 | 0.41 | 0.41 | 86 | 1028.6 |
| 20260901053515 | 10 | 158 | 1.6 | 3.2 | 0.00 | 0.41 | 0.41 | 86 | 1027.8 |
| 20260901052536 | 9 | 0.0 | 3.2 | 0.00 | 0.41 | 0.41 | 87 | 1028.0 | |
| 20260901051515 | 9 | 203 | 1.6 | 4.8 | 0.00 | 0.41 | 0.41 | 87 | 1027.9 |
| 20260901050515 | 10 | 180 | 1.6 | 3.2 | 0.00 | 0.41 | 0.41 | 87 | 1028.2 |
| 20260901045515 | 9 | 158 | 1.6 | 3.2 | 0.00 | 0.41 | 0.41 | 87 | 1028.2 |
| 20260901044515 | 9 | 0.0 | 1.6 | 0.00 | 0.41 | 0.41 | 88 | 1028.2 | |
| 20260901043517 | 9 | 0.0 | 3.2 | 0.00 | 0.41 | 0.41 | 88 | 1027.6 | |
| 20260901042517 | 9 | 0.0 | 3.2 | 0.00 | 0.41 | 0.41 | 90 | 1027.7 | |
| 20260901041517 | 9 | 338 | 1.6 | 4.8 | 0.00 | 0.41 | 0.41 | 92 | 1027.6 |
| 20260901040517 | 9 | 0.0 | 3.2 | 0.00 | 0.41 | 0.41 | 92 | 1027.6 | |
| 20260901035517 | 9 | 45 | 1.6 | 6.4 | 0.03 | 0.41 | 0.41 | 92 | 1027.5 |
| 20260901034517 | 9 | 23 | 4.8 | 12.9 | 0.03 | 0.41 | 0.41 | 92 | 1027.4 |
| 20260901033537 | 9 | 23 | 6.4 | 14.5 | 0.05 | 0.41 | 0.41 | 92 | 1026.4 |
| 20260901032537 | 9 | 23 | 6.4 | 11.3 | 0.10 | 0.41 | 0.41 | 91 | 1026.6 |
| 20260901031517 | 9 | 0 | 3.2 | 6.4 | 0.15 | 0.41 | 0.41 | 91 | 1027.4 |
| 20260901030557 | 9 | 225 | 1.6 | 4.8 | 0.20 | 0.41 | 0.41 | 92 | 1027.3 |
| 20260901025537 | 9 | 248 | 3.2 | 6.4 | 0.25 | 0.38 | 0.38 | 93 | 1027.2 |
| 20260901024517 | 9 | 225 | 1.6 | 3.2 | 0.25 | 0.38 | 0.38 | 93 | 1027.3 |
| 20260901023517 | 9 | 225 | 4.8 | 8.0 | 0.23 | 0.36 | 0.36 | 93 | 1027.4 |
| 20260901022537 | 10 | 225 | 3.2 | 6.4 | 0.18 | 0.30 | 0.30 | 93 | 1027.8 |
| 20260901021517 | 10 | 225 | 3.2 | 8.0 | 0.13 | 0.25 | 0.25 | 92 | 1027.7 |
| 20260901020537 | 10 | 203 | 6.4 | 14.5 | 0.08 | 0.20 | 0.20 | 90 | 1027.0 |
| 20260901015517 | 10 | 180 | 11.3 | 19.3 | 0.00 | 0.13 | 0.13 | 86 | 1027.3 |